• Em Portugal
  • Lista de países
  • Para 7 dias
  • Temperatura da água
  • Mapas de satélite
  • Mapa do tempo
  • Widgets de tempo
  • user-avatar
    Iniciar Sessão

    Previsão horária em Biratnagar

    Hoje, 20 Setembro, Quinta-feira

    Tempo Temperatura Precipitação Vento Pressão Humidade
    00:00 +30°C° 0 mm 2 m/s 749 mmHg 69%
    01:00 +29°C° 0 mm 2 m/s 749 mmHg 69%
    02:00 +29°C° 0 mm 2 m/s 748 mmHg 69%
    03:00 +29°C° 0 mm 2 m/s 748 mmHg 68%
    04:00 +29°C° 0 mm 2 m/s 748 mmHg 67%
    05:00 +29°C° 0 mm 2 m/s 748 mmHg 66%
    06:00 +28°C° 0 mm 2 m/s 748 mmHg 65%
    07:00 +30°C° 0 mm 2 m/s 749 mmHg 60%
    08:00 +33°C° 0 mm 3 m/s 749 mmHg 55%
    09:00 +35°C° 0 mm 3 m/s 750 mmHg 50%
    10:00 +36°C° 0 mm 4 m/s 750 mmHg 50%
    11:00 +37°C° 0 mm 5 m/s 750 mmHg 49%
    12:00 +39°C° 0 mm 6 m/s 750 mmHg 48%
    13:00 +38°C° 0.3 mm 6 m/s 749 mmHg 51%
    14:00 +38°C° 0.3 mm 6 m/s 749 mmHg 54%
    15:00 +38°C° 0.3 mm 6 m/s 748 mmHg 57%
    16:00 +35°C° 0.8 mm 5 m/s 749 mmHg 65%
    17:00 +33°C° 0.8 mm 4 m/s 749 mmHg 72%
    18:00 +30°C° 0.8 mm 3 m/s 749 mmHg 79%
    19:00 +30°C° 0.6 mm 3 m/s 750 mmHg 81%
    20:00 +30°C° 0.6 mm 3 m/s 751 mmHg 82%
    21:00 +29°C° 0.6 mm 3 m/s 752 mmHg 83%
    22:00 +29°C° 0.5 mm 3 m/s 752 mmHg 84%
    23:00 +29°C° 0.5 mm 2 m/s 752 mmHg 85%

    Amanhã, 21 Setembro, Sexta-feira

    Tempo Temperatura Precipitação Vento Pressão Humidade
    00:00 +29°C° 0.5 mm 2 m/s 752 mmHg 85%
    01:00 +28°C° 0.7 mm 2 m/s 751 mmHg 86%
    02:00 +28°C° 0.7 mm 2 m/s 751 mmHg 86%
    03:00 +28°C° 0.7 mm 2 m/s 751 mmHg 86%
    04:00 +28°C° 0.5 mm 2 m/s 751 mmHg 86%
    05:00 +28°C° 0.5 mm 3 m/s 751 mmHg 86%
    06:00 +28°C° 0.5 mm 3 m/s 751 mmHg 86%
    07:00 +29°C° 0.3 mm 3 m/s 751 mmHg 81%
    08:00 +30°C° 0.3 mm 3 m/s 752 mmHg 77%
    09:00 +32°C° 0.3 mm 4 m/s 752 mmHg 72%
    10:00 +33°C° 0.6 mm 4 m/s 752 mmHg 68%
    11:00 +33°C° 0.6 mm 4 m/s 752 mmHg 65%
    12:00 +34°C° 0.6 mm 4 m/s 752 mmHg 61%
    13:00 +35°C° 0.1 mm 4 m/s 752 mmHg 59%
    14:00 +35°C° 0.1 mm 4 m/s 751 mmHg 58%
    15:00 +36°C° 0.1 mm 4 m/s 751 mmHg 56%
    16:00 +34°C° 0.3 mm 4 m/s 751 mmHg 61%
    17:00 +33°C° 0.3 mm 3 m/s 751 mmHg 66%
    18:00 +31°C° 0.3 mm 2 m/s 750 mmHg 70%
    19:00 +31°C° 0.7 mm 2 m/s 751 mmHg 74%
    20:00 +30°C° 0.7 mm 2 m/s 752 mmHg 78%
    21:00 +29°C° 0.7 mm 2 m/s 753 mmHg 81%
    22:00 +29°C° 2.4 mm 2 m/s 753 mmHg 82%
    23:00 +29°C° 2.4 mm 1 m/s 753 mmHg 83%

    Depois de amanhã, 22 Setembro, Sábado

    Tempo Temperatura Precipitação Vento Pressão Humidade
    00:00 +28°C° 2.4 mm 1 m/s 753 mmHg 84%
    01:00 +28°C° 1.5 mm 1 m/s 752 mmHg 85%
    02:00 +28°C° 1.5 mm 1 m/s 752 mmHg 85%
    03:00 +28°C° 1.5 mm 1 m/s 752 mmHg 86%
    04:00 +28°C° 0.4 mm 1 m/s 752 mmHg 85%
    05:00 +28°C° 0.4 mm 1 m/s 752 mmHg 84%
    06:00 +27°C° 0.4 mm 1 m/s 752 mmHg 84%
    07:00 +28°C° 0.6 mm 1 m/s 753 mmHg 80%
    08:00 +29°C° 0.6 mm 1 m/s 753 mmHg 77%
    09:00 +30°C° 0.6 mm 1 m/s 754 mmHg 73%
    10:00 +31°C° 0.8 mm 2 m/s 754 mmHg 68%
    11:00 +32°C° 0.8 mm 2 m/s 753 mmHg 63%
    12:00 +34°C° 0.8 mm 2 m/s 753 mmHg 58%
    13:00 +34°C° 0.1 mm 1 m/s 752 mmHg 59%
    14:00 +34°C° 0.1 mm 1 m/s 751 mmHg 59%
    15:00 +34°C° 0.1 mm 1 m/s 751 mmHg 59%
    16:00 +33°C° 0 mm 1 m/s 751 mmHg 63%
    17:00 +32°C° 0 mm 1 m/s 750 mmHg 67%
    18:00 +29°C° 0 mm 0 m/s 750 mmHg 71%
    19:00 +31°C° 0 mm 1 m/s 751 mmHg 73%
    20:00 +30°C° 0 mm 1 m/s 751 mmHg 74%
    21:00 +30°C° 0 mm 1 m/s 752 mmHg 76%
    22:00 +30°C° 0 mm 1 m/s 752 mmHg 76%
    23:00 +29°C° 0 mm 1 m/s 752 mmHg 76%

    23 Setembro, Domingo

    Tempo Temperatura Precipitação Vento Pressão Humidade
    00:00 +29°C° 0 mm 1 m/s 752 mmHg 76%
    01:00 +29°C° 0 mm 1 m/s 752 mmHg 75%
    02:00 +29°C° 0 mm 1 m/s 751 mmHg 75%
    03:00 +29°C° 0 mm 1 m/s 751 mmHg 75%
    04:00 +28°C° 0.2 mm 1 m/s 751 mmHg 75%
    05:00 +26°C° 0.2 mm 0 m/s 751 mmHg 75%
    06:00 +26°C° 0.2 mm 0 m/s 752 mmHg 76%
    07:00 +27°C° 0.2 mm 0 m/s 752 mmHg 73%
    08:00 +30°C° 0.2 mm 1 m/s 752 mmHg 71%
    09:00 +31°C° 0.2 mm 1 m/s 753 mmHg 68%
    10:00 +32°C° 0.5 mm 1 m/s 753 mmHg 66%
    11:00 +33°C° 0.5 mm 1 m/s 752 mmHg 64%
    12:00 +33°C° 0.5 mm 1 m/s 752 mmHg 62%
    13:00 +34°C° 0 mm 1 m/s 751 mmHg 61%
    14:00 +34°C° 0 mm 1 m/s 751 mmHg 60%
    15:00 +34°C° 0 mm 1 m/s 750 mmHg 59%
    16:00 +33°C° 0 mm 1 m/s 750 mmHg 63%
    17:00 +32°C° 0 mm 1 m/s 750 mmHg 67%
    18:00 +32°C° 0 mm 1 m/s 750 mmHg 71%
    19:00 +31°C° 0 mm 1 m/s 750 mmHg 72%
    20:00 +31°C° 0 mm 1 m/s 751 mmHg 73%
    21:00 +28°C° 0 mm 0 m/s 751 mmHg 74%
    22:00 +30°C° 0.1 mm 1 m/s 751 mmHg 75%
    23:00 +30°C° 0.1 mm 1 m/s 751 mmHg 76%

    24 Setembro, Segunda-feira

    Tempo Temperatura Precipitação Vento Pressão Humidade
    00:00 +29°C° 0.1 mm 1 m/s 751 mmHg 77%
    01:00 +29°C° 0.7 mm 1 m/s 750 mmHg 79%
    02:00 +29°C° 0.7 mm 1 m/s 750 mmHg 80%
    03:00 +28°C° 0.7 mm 1 m/s 750 mmHg 81%
    04:00 +28°C° 0.2 mm 1 m/s 750 mmHg 82%
    05:00 +28°C° 0.2 mm 1 m/s 750 mmHg 82%
    06:00 +28°C° 0.2 mm 1 m/s 750 mmHg 82%
    07:00 +29°C° 0.2 mm 1 m/s 751 mmHg 78%
    08:00 +30°C° 0.2 mm 1 m/s 751 mmHg 75%
    09:00 +32°C° 0.2 mm 1 m/s 751 mmHg 71%
    10:00 +33°C° 0.1 mm 1 m/s 751 mmHg 67%
    11:00 +35°C° 0.1 mm 2 m/s 751 mmHg 64%
    12:00 +36°C° 0.1 mm 3 m/s 750 mmHg 60%
    13:00 +36°C° 0.3 mm 3 m/s 750 mmHg 60%
    14:00 +36°C° 0.3 mm 4 m/s 749 mmHg 60%
    15:00 +36°C° 0.3 mm 4 m/s 748 mmHg 60%
    16:00 +35°C° 0.4 mm 3 m/s 748 mmHg 64%
    17:00 +34°C° 0.4 mm 3 m/s 749 mmHg 68%
    18:00 +32°C° 0.4 mm 2 m/s 749 mmHg 73%
    19:00 +31°C° 0.3 mm 2 m/s 749 mmHg 74%
    20:00 +31°C° 0.3 mm 2 m/s 750 mmHg 76%
    21:00 +30°C° 0.3 mm 2 m/s 750 mmHg 77%
    22:00 +30°C° 0.2 mm 2 m/s 750 mmHg 78%
    23:00 +29°C° 0.2 mm 2 m/s 750 mmHg 79%

    25 Setembro, Terça-feira

    Tempo Temperatura Precipitação Vento Pressão Humidade
    00:00 +29°C° 0.2 mm 1 m/s 750 mmHg 80%
    01:00 +29°C° 0.1 mm 1 m/s 750 mmHg 81%
    02:00 +29°C° 0.1 mm 1 m/s 749 mmHg 82%
    03:00 +28°C° 0.1 mm 1 m/s 749 mmHg 83%
    04:00 +28°C° 0.1 mm 1 m/s 749 mmHg 83%
    05:00 +28°C° 0.1 mm 1 m/s 749 mmHg 84%
    06:00 +28°C° 0.1 mm 1 m/s 749 mmHg 84%
    07:00 +29°C° 0.2 mm 1 m/s 750 mmHg 80%
    08:00 +30°C° 0.2 mm 1 m/s 750 mmHg 75%
    09:00 +32°C° 0.2 mm 2 m/s 750 mmHg 71%
    10:00 +34°C° 0.5 mm 2 m/s 750 mmHg 67%
    11:00 +35°C° 0.5 mm 3 m/s 750 mmHg 64%
    12:00 +36°C° 0.5 mm 4 m/s 749 mmHg 60%
    13:00 +36°C° 0.4 mm 4 m/s 749 mmHg 60%
    14:00 +36°C° 0.4 mm 5 m/s 748 mmHg 60%
    15:00 +36°C° 0.4 mm 5 m/s 747 mmHg 59%
    16:00 +35°C° 0.5 mm 4 m/s 748 mmHg 64%
    17:00 +34°C° 0.5 mm 3 m/s 748 mmHg 69%
    18:00 +33°C° 0.5 mm 3 m/s 748 mmHg 74%
    19:00 +31°C° 0.5 mm 2 m/s 748 mmHg 76%
    20:00 +30°C° 0.5 mm 2 m/s 749 mmHg 78%
    21:00 +30°C° 0.5 mm 2 m/s 749 mmHg 80%
    22:00 +29°C° 0.6 mm 2 m/s 749 mmHg 82%
    23:00 +29°C° 0.6 mm 1 m/s 749 mmHg 83%
    Mostrar mais